RH
84 85 86 84 82 78 72 70 74 82 76 68 78 80 79 78 77 73 72 65 70 71 71 64 65 70 70 72 77 74 72 75 79 78 79 80 77 76
90 89 87 85 84 85 83 77 76 77 79 65 74 78 76 74 72 72 70 72 78 82 71 66 58 63 62 67 70 71 77 82 83 85 84 79 76 77
91 88 85 84 84 84 83 82 82 78 78 69 65 76 84 79 72 74 78 78 82 78 85 79 87 90 80 72 74 71 71 84 86 89 86 82 81 81
90 87 85 81 82 87 85 84 83 79 81 77 71 72 87 94 88 90 85 86 91 87 89 91 90 87 94 92 85 82 90 94 98 94 91 89 85 88
88 84 84 82 81 84 86 85 82 85 86 87 82 80 78 85 99 99 100 100 97 92 86 89 89 97 98 99 100 96 92 96 98 97 97 95 88 98
94 89 87 85 84 83 82 92 96 92 86 91 90 88 86 86 88 98 100 100 100 99 99 100 99 100 100 98 100 100 100 100 100 100 99 94 94 97
100 95 91 87 79 76 84 89 97 97 86 87 92 90 90 98 98 98 99 100 99 100 100 100 99 99 99 99 100 100 100 100 100 100 97 94 87 82
100 97 95 88 80 74 75 79 82 98 98 84 86 87 85 89 92 92 99 100 99 99 100 100 99 100 100 100 100 100 100 100 100 96 87 78 90 99
100 100 100 99 94 89 87 85 89 97 97 98 91 86 85 81 88 98 99 98 98 100 100 100 100 100 100 100 100 99 97 92 85 78 87 94 96 98
100 100 100 99 98 100 100 100 100 99 99 100 100 99 100 95 99 98 100 100 100 100 100 100 100 100 100 100 96 89 85 82 83 95 98 99 100 100
100 100 100 100 100 100 100 100 100 100 100 100 100 100 100 99 100 100 100 100 99 100 100 99 100 100 100 100 93 87 85 89 97 100 99 97 96 94
97 100 100 99 100 100 98 100 100 99 100 100 100 99 98 100 98 99 99 99 100 99 100 98 100 100 100 98 96 94 88 93 98 99 97 94 94 96
100 99 100 100 100 98 96 96 99 100 98 98 99 99 97 94 95 98 100 96 99 100 100 98 100 99 99 99 94 88 85 86 92 90 90 90 89 95
96 100 100 100 99 100 99 99 99 98 93 90 91 99 100 99 98 95 92 99 100 99 99 96 99 99 100 99 94 98 89 90 96 93 85 84 84 88
95 98 97 91 92 93 96 91 86 85 88 95 100 100 100 96 87 84 90 88 90 90 93 100 98 99 98 96 100 89 96 88 92 99 98 100 97 88
86 83 83 78 77 78 81 85 86 86 92 98 100 97 90 83 85 85 84 99 98 95 85 79 80 96 97 98 97 96 95 95 96 96 96 98 99 99
64 61 60 63 67 73 77 80 83 87 93 93 93 95 94 92 86 80 86 90 92 92 91 86 81 82 90 94 98 97 97 91 97 98 97 97 97 92
56 55 62 63 64 69 76 82 86 91 92 91 91 93 90 89 89 88 87 88 86 85 85 84 78 81 83 80 83 91 89 89 92 93 92 90 92 94
57 65 68 71 74 76 80 83 90 93 91 91 93 93 93 90 91 89 88 85 84 84 85 83 85 91 94 95 75 91 99 86 78 86 88 78 82 81
69 73 76 77 80 82 85 88 90 92 94 94 93 92 92 91 87 87 86 85 84 82 80 78 84 91 96 97 95 78 64 68 80 98 94 88 90 84
76 76 79 82 86 89 92 94 95 95 99 96 94 95 94 93 92 90 85 80 79 80 81 81 88 85 86 90 96 81 74 65 62 74 82 96 94 92
76 78 83 87 92 94 95 96 96 96 96 96 95 95 96 95 93 90 87 86 84 86 86 83 81 80 81 88 90 85 83 77 66 68 74 78 93 94
76 79 84 90 93 94 95 94 96 94 87 87 96 97 92 95 93 92 90 87 87 87 86 85 82 82 84 84 81 82 83 80 80 84 80 72 77 80
Wind_Speed
29 29 31 31 33 32 32 32 19 11 11 18 19 25 28 33 37 35 38 33 33 31 29 32 34 37 37 37 38 35 35 32 29 24 22 22 22 23
28 27 29 28 29 31 30 29 29 23 14 20 19 21 26 31 34 35 34 34 35 35 30 42 34 30 27 32 37 36 34 33 30 27 25 25 24 24
27 28 28 27 28 28 29 30 29 27 14 21 24 24 30 33 34 36 37 36 37 35 35 40 40 37 35 32 31 35 35 36 33 29 27 25 23 24
29 29 28 27 27 28 28 28 27 27 25 15 23 23 25 25 31 32 38 39 37 37 36 37 36 35 35 33 35 34 32 36 33 30 29 27 25 23
26 26 26 26 25 25 25 25 26 26 27 22 18 19 25 25 24 28 29 33 35 37 35 36 37 38 38 38 42 41 36 34 33 32 28 26 26 24
25 27 26 26 26 23 23 21 18 19 20 18 17 17 21 24 28 24 18 25 27 30 31 33 34 38 36 35 37 40 41 39 38 30 26 25 23 21
23 25 24 26 28 27 23 22 19 18 22 18 14 17 17 10 15 17 22 19 25 27 27 27 27 28 30 29 31 34 35 30 24 22 19 20 18 17
16 20 21 18 23 23 21 22 23 20 19 21 17 14 19 22 21 21 20 6 3 17 20 15 13 14 15 19 20 19 18 17 16 14 14 15 13 13
7 8 8 11 16 20 22 24 26 28 31 28 23 20 18 21 22 19 21 18 12 11 18 6 13 11 10 11 12 11 10 10 10 11 12 12 12 13
10 6 5 6 10 15 17 15 10 12 18 20 21 16 16 19 22 25 23 15 12 12 11 4 9 10 8 9 8 7 6 7 9 10 10 11 13 13
19 15 10 8 7 4 11 17 18 17 18 16 17 15 11 8 11 14 16 16 2 2 4 5 6 11 6 7 5 5 5 6 7 7 9 11 11 12
16 18 17 13 11 13 17 18 20 13 15 17 25 24 23 21 20 15 12 14 4 3 6 5 5 4 4 5 7 10 10 9 6 5 6 7 8 10
12 14 15 17 16 17 17 18 17 18 19 20 22 22 22 24 22 18 16 16 7 5 4 5 5 6 5 5 5 7 6 3 3 3 6 8 9 10
8 11 13 13 14 16 17 14 12 14 17 19 20 18 19 23 20 16 15 16 13 13 8 5 5 3 4 3 3 6 1 3 5 7 7 9 9 11
8 10 11 12 14 16 14 12 10 12 14 16 14 16 19 17 14 16 15 14 12 11 8 7 6 5 5 4 2 3 4 3 8 7 8 10 9 9
9 9 11 12 13 12 14 15 15 14 15 14 15 15 16 17 18 14 14 11 10 13 12 11 8 3 2 2 2 3 5 4 3 8 12 13 12 11
10 7 6 7 10 12 13 14 14 14 16 14 15 15 15 14 15 12 13 12 11 6 9 11 9 8 4 2 3 5 7 9 10 11 12 15 15 16
7 7 6 7 8 9 10 11 12 12 12 13 13 12 10 9 9 11 11 10 8 6 5 6 9 7 4 4 5 4 5 6 8 9 10 13 14 13
8 8 8 8 8 9 9 10 11 11 11 12 11 9 8 8 7 6 6 6 6 5 5 5 6 4 1 1 6 5 9 13 18 17 15 15 17 20
9 10 10 9 9 9 9 10 10 9 9 9 8 8 7 6 6 6 5 4 4 3 4 4 6 9 6 3 4 16 18 18 17 17 18 20 19 21
9 10 10 10 9 9 8 8 7 6 5 5 5 5 4 4 4 3 3 4 4 4 5 5 7 8 9 7 6 11 15 16 19 20 21 20 19 18
10 10 9 9 9 8 6 6 6 5 5 4 4 4 3 3 2 1 2 3 4 5 7 9 10 10 10 8 10 14 15 20 21 20 17 20 21 6
12 11 10 9 8 7 7 7 7 5 5 5 5 3 3 2 2 2 3 4 5 7 8 9 10 10 10 11 14 15 17 19 20 21 20 19 22 24
Wind_Direction
248 250 251 254 252 252 248 243 240 245 239 233 225 228 225 234 235 230 229 235 235 230 230 238 246 249 247 248 248 249 249 248 243 234 232 238 245 251
250 251 251 251 252 250 249 247 243 241 252 238 234 231 235 235 235 229 232 234 233 236 230 231 229 236 243 249 248 246 243 239 233 232 233 235 247 255
252 252 253 250 249 248 246 241 238 236 242 250 242 232 231 234 234 235 233 231 238 240 239 239 250 251 247 245 251 245 239 230 229 228 230 236 249 262
251 253 253 253 251 247 242 238 234 232 233 245 244 244 229 231 239 238 233 232 244 248 245 246 248 251 248 247 246 245 235 227 223 224 229 240 250 255
260 258 252 249 251 246 242 239 234 231 228 234 240 241 247 245 233 235 234 242 247 250 253 257 257 255 253 254 255 236 226 231 229 228 233 242 256 248
263 263 253 246 243 243 241 247 268 251 242 241 243 242 247 249 241 233 223 228 238 252 255 258 259 262 263 262 259 242 229 224 220 219 233 249 248 247
264 267 260 246 246 246 239 243 249 264 260 241 242 238 235 220 216 227 230 229 239 241 245 249 258 262 260 254 247 232 207 200 211 229 236 241 240 238
268 270 261 250 247 235 232 242 246 250 265 260 246 242 239 235 232 228 228 181 247 233 227 209 200 184 178 175 179 186 199 210 212 222 227 233 218 213
318 284 272 251 245 246 250 255 257 257 260 260 263 253 255 243 229 223 217 222 216 201 193 160 172 157 169 158 161 170 182 192 202 210 201 198 202 210
23 5 332 302 278 258 251 240 219 244 251 258 246 239 248 257 232 228 219 189 158 159 164 114 146 127 129 125 129 135 154 175 190 187 192 192 199 213
54 50 53 50 37 115 164 130 107 91 93 134 119 132 165 188 208 207 163 144 114 119 91 122 131 121 117 105 117 142 158 175 181 194 195 208 218 229
70 64 57 67 87 112 113 108 95 87 98 97 99 96 96 97 93 102 109 98 107 63 39 94 120 128 93 81 110 113 114 122 143 186 204 218 231 245
60 59 53 65 86 98 107 109 108 114 98 88 82 81 79 77 73 72 72 88 67 82 67 103 130 123 104 138 136 130 125 130 165 224 255 255 256 252
72 63 65 70 78 89 94 90 97 104 99 91 83 68 67 72 70 68 73 72 79 99 91 89 106 99 111 107 124 135 103 296 295 297 290 283 276 270
102 98 88 77 73 75 72 71 74 76 84 79 70 65 69 73 78 73 71 78 78 75 74 86 102 125 115 108 92 47 0 325 284 274 298 284 292 295
113 109 98 90 82 76 72 72 75 78 83 83 82 77 73 66 67 66 68 79 72 52 52 50 53 96 136 194 251 284 287 310 288 297 292 288 292 295
137 120 111 95 86 79 75 73 75 78 75 78 79 77 73 70 63 64 68 72 76 51 39 32 29 24 13 314 304 270 280 292 295 296 297 297 295 291
141 137 114 100 93 93 92 86 78 76 78 82 81 79 78 77 72 63 68 73 81 68 49 16 14 22 359 310 262 273 317 303 306 303 304 302 302 309
151 135 126 124 118 111 104 100 95 93 96 95 93 90 92 86 83 77 70 67 66 52 32 16 7 1 27 3 343 283 3 327 316 306 299 296 292 295
150 143 137 134 128 122 117 116 113 104 98 101 99 95 92 88 84 75 70 58 43 26 13 17 37 32 10 336 312 294 305 304 298 289 294 301 294 297
147 138 139 136 132 130 125 118 115 110 107 109 106 103 89 91 78 62 36 32 21 17 5 7 355 337 327 322 298 300 308 302 301 298 301 296 297 297
151 143 140 141 141 139 132 127 127 123 117 121 122 123 118 116 101 52 23 4 1 356 331 328 332 333 328 307 292 297 304 311 310 299 295 286 275 270
157 155 151 150 150 147 147 148 146 150 152 150 144 140 126 98 25 360 346 338 331 327 322 318 323 325 315 308 304 302 302 306 305 300 299 304 292 281